When you browse on this site, cookies collect data to enhance your experience and personalize the content and advertising you see.
Visit our Privacy Policy to learn more. By continuing to use the site, you agree to this use of cookies and data.
  • In Portugal
  • List of Countries
  • For 7 days
  • Water Temperature
  • Satellite Maps
  • Weather Map
  • Weather Widgets
  • user-avatar
    Login

    Hourly Weather Meshhed

    Today, 21 July, Sunday

    Time Temperature Precipitation Wind Pressure Humidity
    00:00 +26°C° 0 mm 8 mps 616 mmHg 32%
    01:00 +26°C° 0 mm 8 mps 616 mmHg 33%
    02:00 +26°C° 0 mm 8 mps 615 mmHg 34%
    03:00 +24°C° 0 mm 7 mps 615 mmHg 36%
    04:00 +23°C° 0 mm 5 mps 615 mmHg 35%
    05:00 +24°C° 0 mm 6 mps 616 mmHg 33%
    06:00 +26°C° 0 mm 7 mps 616 mmHg 32%
    07:00 +28°C° 0 mm 8 mps 617 mmHg 30%
    08:00 +29°C° 0 mm 9 mps 618 mmHg 25%
    09:00 +32°C° 0 mm 10 mps 618 mmHg 21%
    10:00 +34°C° 0 mm 11 mps 619 mmHg 16%
    11:00 +36°C° 0 mm 12 mps 619 mmHg 15%
    12:00 +36°C° 0 mm 12 mps 619 mmHg 15%
    13:00 +37°C° 0 mm 13 mps 619 mmHg 14%
    14:00 +36°C° 0 mm 13 mps 618 mmHg 15%
    15:00 +36°C° 0 mm 13 mps 618 mmHg 16%
    16:00 +34°C° 0 mm 13 mps 618 mmHg 17%
    17:00 +33°C° 0 mm 11 mps 617 mmHg 19%
    18:00 +32°C° 0 mm 10 mps 617 mmHg 22%
    19:00 +31°C° 0 mm 8 mps 617 mmHg 24%
    20:00 +29°C° 0 mm 8 mps 616 mmHg 25%
    21:00 +28°C° 0 mm 8 mps 616 mmHg 25%
    22:00 +28°C° 0 mm 8 mps 616 mmHg 26%
    23:00 +27°C° 0 mm 8 mps 616 mmHg 26%

    Tomorrow, 22 July, Monday

    Time Temperature Precipitation Wind Pressure Humidity
    00:00 +26°C° 0 mm 8 mps 616 mmHg 27%
    01:00 +26°C° 0 mm 8 mps 615 mmHg 28%
    02:00 +24°C° 0 mm 6 mps 615 mmHg 31%
    03:00 +23°C° 0 mm 5 mps 615 mmHg 34%
    04:00 +22°C° 0 mm 4 mps 615 mmHg 37%
    05:00 +23°C° 0 mm 4 mps 615 mmHg 35%
    06:00 +25°C° 0 mm 3 mps 616 mmHg 33%
    07:00 +26°C° 0 mm 3 mps 617 mmHg 32%
    08:00 +27°C° 0 mm 3 mps 617 mmHg 29%
    09:00 +28°C° 0 mm 4 mps 617 mmHg 26%
    10:00 +30°C° 0 mm 4 mps 617 mmHg 23%
    11:00 +32°C° 0 mm 5 mps 617 mmHg 20%
    12:00 +33°C° 0 mm 6 mps 617 mmHg 18%
    13:00 +35°C° 0 mm 7 mps 618 mmHg 15%
    14:00 +34°C° 0 mm 8 mps 617 mmHg 14%
    15:00 +34°C° 0 mm 9 mps 616 mmHg 14%
    16:00 +34°C° 0 mm 10 mps 616 mmHg 13%
    17:00 +32°C° 0 mm 9 mps 615 mmHg 13%
    18:00 +29°C° 0 mm 8 mps 615 mmHg 14%
    19:00 +27°C° 0 mm 7 mps 614 mmHg 15%
    20:00 +26°C° 0 mm 7 mps 614 mmHg 15%
    21:00 +24°C° 0 mm 6 mps 614 mmHg 16%
    22:00 +23°C° 0 mm 5 mps 614 mmHg 16%
    23:00 +22°C° 0 mm 5 mps 613 mmHg 16%

    Day after tomorrow, 23 July, Tuesday

    Time Temperature Precipitation Wind Pressure Humidity
    00:00 +22°C° 0 mm 5 mps 613 mmHg 16%
    01:00 +21°C° 0 mm 5 mps 612 mmHg 16%
    02:00 +21°C° 0 mm 4 mps 612 mmHg 17%
    03:00 +20°C° 0 mm 4 mps 612 mmHg 18%
    04:00 +19°C° 0 mm 4 mps 612 mmHg 18%
    05:00 +21°C° 0 mm 4 mps 612 mmHg 17%
    06:00 +22°C° 0 mm 4 mps 613 mmHg 16%
    07:00 +23°C° 0 mm 4 mps 614 mmHg 15%
    08:00 +26°C° 0 mm 4 mps 614 mmHg 14%
    09:00 +27°C° 0 mm 5 mps 615 mmHg 13%
    10:00 +29°C° 0 mm 5 mps 615 mmHg 12%
    11:00 +30°C° 0 mm 6 mps 615 mmHg 11%
    12:00 +32°C° 0 mm 6 mps 615 mmHg 9%
    13:00 +33°C° 0 mm 7 mps 616 mmHg 8%
    14:00 +33°C° 0 mm 8 mps 615 mmHg 9%
    15:00 +33°C° 0 mm 9 mps 615 mmHg 9%
    16:00 +33°C° 0 mm 11 mps 615 mmHg 9%
    17:00 +32°C° 0 mm 10 mps 614 mmHg 11%
    18:00 +29°C° 0 mm 9 mps 614 mmHg 13%
    19:00 +28°C° 0 mm 8 mps 614 mmHg 15%
    20:00 +27°C° 0 mm 8 mps 614 mmHg 16%
    21:00 +26°C° 0 mm 8 mps 613 mmHg 17%
    22:00 +24°C° 0 mm 7 mps 613 mmHg 19%
    23:00 +24°C° 0 mm 7 mps 613 mmHg 20%

    24 July, Wednesday

    Time Temperature Precipitation Wind Pressure Humidity
    00:00 +23°C° 0 mm 7 mps 613 mmHg 20%
    01:00 +23°C° 0 mm 6 mps 613 mmHg 21%
    02:00 +22°C° 0 mm 5 mps 612 mmHg 23%
    03:00 +22°C° 0 mm 4 mps 612 mmHg 24%
    04:00 +21°C° 0 mm 3 mps 612 mmHg 25%
    05:00 +22°C° 0 mm 3 mps 612 mmHg 23%
    06:00 +24°C° 0 mm 3 mps 613 mmHg 22%
    07:00 +26°C° 0 mm 3 mps 614 mmHg 20%
    08:00 +27°C° 0 mm 4 mps 614 mmHg 18%
    09:00 +29°C° 0 mm 5 mps 615 mmHg 16%
    10:00 +30°C° 0 mm 5 mps 615 mmHg 15%
    11:00 +32°C° 0 mm 7 mps 616 mmHg 13%
    12:00 +33°C° 0 mm 8 mps 616 mmHg 12%
    13:00 +35°C° 0 mm 9 mps 616 mmHg 10%
    14:00 +35°C° 0 mm 9 mps 615 mmHg 10%
    15:00 +34°C° 0 mm 9 mps 615 mmHg 11%
    16:00 +34°C° 0 mm 10 mps 615 mmHg 11%
    17:00 +33°C° 0 mm 9 mps 614 mmHg 12%
    18:00 +32°C° 0 mm 8 mps 614 mmHg 13%
    19:00 +31°C° 0 mm 8 mps 613 mmHg 14%
    20:00 +28°C° 0 mm 8 mps 613 mmHg 17%
    21:00 +27°C° 0 mm 7 mps 613 mmHg 20%
    22:00 +26°C° 0 mm 7 mps 613 mmHg 22%
    23:00 +24°C° 0 mm 6 mps 613 mmHg 24%

    25 July, Thursday

    Time Temperature Precipitation Wind Pressure Humidity
    00:00 +24°C° 0 mm 6 mps 612 mmHg 25%
    01:00 +23°C° 0 mm 5 mps 612 mmHg 26%
    02:00 +22°C° 0 mm 4 mps 612 mmHg 28%
    03:00 +21°C° 0 mm 3 mps 612 mmHg 30%
    04:00 +21°C° 0 mm 3 mps 611 mmHg 31%
    05:00 +22°C° 0 mm 3 mps 612 mmHg 29%
    06:00 +25°C° 0 mm 3 mps 613 mmHg 27%
    07:00 +26°C° 0 mm 4 mps 614 mmHg 24%
    08:00 +28°C° 0 mm 5 mps 615 mmHg 22%
    09:00 +30°C° 0 mm 7 mps 615 mmHg 19%
    10:00 +32°C° 0 mm 8 mps 616 mmHg 16%
    11:00 +33°C° 0 mm 9 mps 616 mmHg 15%
    12:00 +34°C° 0 mm 9 mps 616 mmHg 14%
    13:00 +36°C° 0 mm 10 mps 616 mmHg 13%
    14:00 +36°C° 0 mm 10 mps 615 mmHg 13%
    15:00 +36°C° 0 mm 10 mps 615 mmHg 14%
    16:00 +36°C° 0 mm 10 mps 615 mmHg 14%
    17:00 +33°C° 0 mm 9 mps 614 mmHg 15%
    18:00 +32°C° 0 mm 8 mps 614 mmHg 16%
    19:00 +30°C° 0 mm 7 mps 613 mmHg 17%
    20:00 +29°C° 0 mm 7 mps 613 mmHg 18%
    21:00 +28°C° 0 mm 6 mps 613 mmHg 19%
    22:00 +26°C° 0 mm 5 mps 613 mmHg 21%
    23:00 +26°C° 0 mm 5 mps 612 mmHg 22%

    26 July, Friday

    Time Temperature Precipitation Wind Pressure Humidity
    00:00 +25°C° 0 mm 4 mps 612 mmHg 23%
    01:00 +24°C° 0 mm 3 mps 611 mmHg 25%
    02:00 +22°C° 0 mm 3 mps 611 mmHg 26%
    03:00 +22°C° 0 mm 3 mps 611 mmHg 27%
    04:00 +21°C° 0 mm 2 mps 611 mmHg 27%
    05:00 +24°C° 0 mm 2 mps 612 mmHg 25%
    06:00 +26°C° 0 mm 3 mps 612 mmHg 23%
    07:00 +27°C° 0 mm 3 mps 613 mmHg 20%
    08:00 +29°C° 0 mm 4 mps 614 mmHg 18%
    09:00 +32°C° 0 mm 5 mps 614 mmHg 16%
    10:00 +33°C° 0 mm 6 mps 615 mmHg 14%
    11:00 +34°C° 0 mm 7 mps 615 mmHg 13%
    12:00 +35°C° 0 mm 8 mps 615 mmHg 12%
    13:00 +37°C° 0 mm 8 mps 615 mmHg 11%
    14:00 +37°C° 0 mm 9 mps 614 mmHg 12%
    15:00 +35°C° 0 mm 9 mps 614 mmHg 12%
    16:00 +35°C° 0 mm 9 mps 613 mmHg 13%
    17:00 +34°C° 0 mm 8 mps 613 mmHg 14%
    18:00 +33°C° 0 mm 7 mps 613 mmHg 15%
    19:00 +30°C° 0 mm 6 mps 612 mmHg 17%
    20:00 +29°C° 0 mm 6 mps 612 mmHg 19%
    21:00 +28°C° 0 mm 5 mps 612 mmHg 22%
    22:00 +26°C° 0 mm 4 mps 611 mmHg 24%
    23:00 +26°C° 0 mm 4 mps 611 mmHg 28%
    Show more